SCP
0 0 0 0 0 0 0 0 0 0 0 0 0 0 0 0 0 0 0 0 0 0 0 0 0 0 0 0 0 0 0 0 0 0 0 0 0 0 0 0 0 0 0
0 0 0 0 0 0 0 0 0 0 0 0 0 0 0 0 0 0 0 0 0 0 0 0 0 0 0 0 0 0 0 0 0 0 0 0 0 0 0 0 0 0 0
0 0 0 0 0 0 0 0 0 0 0 0 0 0 0 0 0 0 0 0 0 0 0 0 0 0 0 0 0 0 0 0 0 0 0 0 0 0 0 0 0 0 0
0 0 0 0 0 0 0 0 0 0 0 0 0 0 0 0 0 0 0 0 0 0 0 0 0 0 0 0 0 0 0 0 0 0 0 0 0 0 0 0 0 0 0
0 0 0 0 0 0 0 0 0 0 0 0 0 0 0 0 0 0 0 0 0 0 0 0 0 0 0 0 0 0 0 0 0 0 0 0 0 0 0 0 0 0 0
0 0 0 0 0 0 0 0 0 0 0 0 0 0 0 0 0 0 0 0 0 0 0 0 0 0 0 0 0 0 0 0 0 0 0 0 0 0 0 0 0 0 0
0 0 0 0 0 0 0 0 0 0 0 0 0 0 0 0 0 0 0 0 0 0 0 0 0 0 0 0 0 0 0 0 0 0 0 0 0 0 0 0 0 0 0
0 0 0 0 0 0 0 0 0 0 0 -0 0 -0 0 0 0 -0 0 0 0 0 0 0 0 0 0 0 0 0 0 0 0 0 0 0 0 0 0 0 0 0 0
0 0 0 0 0 0 0 0 0 0 0 0 0 0 0 0 -0 0 0 0 0 0 0 0 0 0 0 0 0 0 0 0 0 0 0 0 0 0 0 0 0 0 0
0 0 0 0 0 0 0 0 0 0 0 0 0 0 0 0 0 0 0 0 0 0 0 0 0 0 0 0 0 0 0 0 0 0 0 0 0 0 0 0 0 0 0
0 0 0 0 0 0 0 0 0 0 0 0 0 0 0 0 0 0 0 0 0 0 0 0 0 0 0 0 0 0 0 0 0 0 0 0 0 0 0 0 0 0 0
0 0 0 0 0 0 0 0 0 0 0 0 0 0 0 0 0 0 0 0 0 0 0 0 0 0 0 0 0 0 0 0 0 0 0 0 0 0 0 0 0 0 0
0 0 0 0 0 0 0 0 0 0 0 0 0 0 0 0 0 -0 -0 -0 -0 0 0 0 0 0 -0 0 0 0 0 0 0 0 0 0 0 0 0 0 0 0 0
0 0 0 0 0 0 0 0 0 0 0 0 0 0 0 0 0 0 0 0 0 0 0 0 0 0 0 0 0 0 0 0 0 0 0 0 0 0 0 0 0 0 0
-0 -0 -0 0 0 0 0 0 0 0 -0 -0 0 0 0 0 0 0 0 0 0 0 0 0 0 0 0 0 0 0 0 0 0 0 0 0 0 0 0 0 0 0 0
-0 -0 -0 -0 0 0 0 0 0 0 0 0 0 0 0 0 0 0 0 0 0 0 0 0 0 0 0 0 0 0 0 0 0 0 0 0 0 0 0 0 0 0 0
-0 0 -0 -0 -0 0 0 0 0 0 0 0 0 0 0 0 0 0 -0 -0 -0 -0 -0 0 0 0 -0 0 0 0 0 0 0 0 0 0 0 0 0 0 0 0 0
0 0 0 0 0 0 0 0 0 0 0 0 0 0 0 0 0 0 0 0 0 -0 -0 -0 -0 -0 0 0 0 0 0 0 0 0 0 0 0 0 0 0 0 0 0
0 -0 0 0 0 0 0 0 0 0 0 0 0 0 0 -0 -0 -0 -0 -0 -0 -0 -0 -0 -0 -0 -0 0 0 0 0 0 0 0 0 0 0 0 0 0 0 0 0
0 -0 0 0 0 0 0 0 0 0 0 0 0 0 0 0 -0 -0 -0 -0 -0 -0 -0 -0 -0 0 0 0 0 0 0 0 0 0 0 0 0 0 0 0 0 0 0
0 0 0 0 0 0 0 0 0 0 0 0 0 0 -0 -0 -0 -0 -0 -0 -0 -0 0 0 0 0 0 0 0 0 0 0 0 0 0 0 0 0 0 0 0 0 0
0 0 0 0 0 0 0 0 0 0 0 0 0 -0 -0 -0 -0 -0 -0 0 0 0 0 0 0 0 0 0 0 0 0 0 0 0 0 0 0 0 0 0 0 0 0
0 0 0 0 0 -0 -0 0 0 0 0 0 0 0 0 0 0 0 0 0 0 0 0 0 0 0 0 0 0 0 0 0 0 0 0 0 0 0 0 0 0 0 0
0 0 0 0 -0 -0 -0 -0 0 0 0 0 0 0 0 0 0 0 0 0 0 0 0 0 0 0 0 0 0 0 0 0 0 0 0 0 0 0 0 0 0 0 0
0 0 0 0 0 -0 -0 -0 -0 0 0 0 0 0 0 0 0 0 0 0 0 0 0 0 0 0 0 0 0 0 0 0 0 0 0 0 0 0 0 0 0 0 0
0 0 0 0 0 0 0 0 0 0 0 0 0 0 0 0 0 0 0 0 0 0 0 0 0 0 0 0 0 0 0 0 0 0 0 0 0 0 0 0 0 0 0
Wind_Speed_500mb
69 64 69 69 68 73 75 77 76 79 77 72 72 70 67 72 77 78 82 89 92 94 91 99 93 103 121 123 122 128 125 112 86 91 102 105 95 106 109 96 85 76 74
69 70 70 68 65 69 70 70 72 71 71 69 72 72 73 69 76 78 82 94 88 95 98 101 99 96 119 116 114 128 126 117 108 91 83 86 90 86 82 96 91 85 85
65 69 70 70 67 66 66 64 66 66 67 64 66 71 69 71 68 78 82 78 86 88 93 99 96 98 102 109 119 128 131 124 120 108 91 83 74 80 77 88 89 84 80
68 65 65 61 61 61 60 61 62 61 62 63 60 63 68 74 75 74 75 78 81 88 92 96 90 97 100 100 117 124 123 122 102 88 81 75 73 77 73 81 90 85 84
62 63 60 58 54 54 55 54 54 53 54 56 57 60 62 65 68 77 76 89 72 81 87 91 84 83 88 87 101 110 112 101 98 84 72 74 75 74 80 81 80 82 79
56 57 54 52 52 51 53 53 48 47 42 44 49 56 58 64 60 62 67 84 74 81 87 86 76 72 78 80 97 94 86 112 104 94 83 80 75 70 72 74 77 81 76
51 50 49 50 48 48 48 40 23 19 27 33 41 47 52 53 59 62 69 58 80 82 81 78 73 68 66 81 84 80 79 84 97 95 74 71 60 64 66 64 68 69 71
47 46 44 42 41 43 41 32 22 8 6 20 28 35 39 41 42 59 57 81 77 72 66 65 68 64 66 79 70 80 72 78 87 82 74 65 49 48 45 45 48 51 51
46 44 42 38 39 41 39 32 27 18 9 5 15 29 34 33 36 47 52 47 59 56 49 48 54 63 67 72 69 69 55 68 58 46 39 36 33 34 33 39 39 46 52
42 41 37 33 34 36 36 31 24 21 15 7 2 15 24 33 35 35 33 50 51 48 42 42 52 54 60 57 52 50 65 69 68 58 43 38 42 39 31 32 37 45 49
39 35 33 30 28 30 30 29 25 22 16 13 7 15 25 37 44 42 38 45 48 46 44 46 38 36 48 40 39 66 73 61 48 38 45 43 36 31 34 38 39 39 41
34 33 33 33 31 30 30 29 27 23 22 24 24 27 27 29 33 35 35 35 43 46 45 41 38 45 43 41 60 57 43 42 46 46 37 31 33 36 33 31 32 34 37
30 33 32 32 33 34 31 32 32 30 32 31 33 35 30 23 21 17 19 21 28 41 47 55 53 56 63 57 44 45 50 46 39 36 35 33 29 28 28 29 31 34 39
32 35 35 36 39 39 38 34 32 33 35 38 35 38 36 33 31 30 31 35 44 58 66 70 69 61 59 63 58 47 39 36 33 30 28 27 26 24 24 27 31 35 40
39 45 48 47 51 54 55 51 49 46 43 46 43 44 45 47 47 49 58 70 76 75 72 69 70 67 62 55 50 45 38 33 29 26 24 22 20 20 24 28 30 30 31
43 46 49 51 53 57 59 60 56 52 52 52 49 50 52 51 49 53 56 58 59 62 67 66 61 54 49 45 40 36 31 26 21 17 15 13 13 14 18 21 24 26 28
32 39 43 48 51 54 60 64 65 59 59 60 59 59 59 56 54 54 54 54 50 47 51 52 49 44 42 37 32 27 22 17 11 7 7 8 11 14 17 21 23 26 29
12 20 28 32 33 34 37 41 45 48 50 51 46 46 44 44 44 43 42 44 46 40 43 43 41 37 34 29 23 17 11 6 4 5 7 10 13 16 19 23 25 26 27
11 15 19 22 24 26 28 29 33 39 43 42 39 38 38 38 40 38 36 38 42 41 37 35 32 27 22 18 14 10 7 5 3 3 6 10 13 15 16 17 18 19 21
14 14 17 19 21 23 25 25 27 28 31 32 31 31 29 26 28 32 29 28 27 28 26 22 23 20 18 17 15 13 9 5 1 3 6 8 9 9 11 14 17 20 22
24 22 20 19 19 19 19 20 20 22 25 27 27 27 25 18 23 25 26 27 27 28 27 26 27 24 21 17 13 9 6 3 1 2 5 8 10 13 15 17 19 23 27
32 29 26 23 22 21 21 19 18 17 18 18 22 23 23 19 25 29 30 30 31 31 30 25 22 19 17 14 12 9 7 6 7 10 12 14 15 17 19 22 25 29 32
36 36 32 29 26 24 22 19 18 17 17 18 20 21 25 22 24 26 28 29 29 27 25 23 20 17 15 13 11 10 11 12 13 14 14 15 17 19 21 24 29 32 33
44 38 35 34 32 30 27 25 23 22 22 23 24 26 26 26 27 28 28 27 25 23 23 19 16 13 13 13 12 12 11 12 13 15 16 18 19 21 23 29 34 35 32
48 47 44 41 38 35 33 31 30 29 28 27 28 29 30 29 30 28 27 26 23 20 18 16 15 13 12 11 13 15 16 18 17 17 18 19 22 24 26 35 34 29 26
55 51 48 45 44 41 38 36 35 34 33 34 34 33 32 31 29 28 27 25 21 18 15 14 12 12 13 14 16 16 17 18 19 22 19 20 24 24 34 33 29 23 30
Wind_Direction_500mb
313 308 303 296 290 285 281 276 268 265 260 252 250 246 241 246 238 234 228 225 227 226 225 228 228 226 224 224 223 228 232 231 219 225 225 229 229 230 230 226 228 228 229
316 314 307 301 296 291 286 279 275 268 263 252 247 245 243 244 233 226 225 220 221 223 223 222 227 229 227 229 234 232 222 221 232 227 223 227 227 228 229 225 227 224 227
314 317 315 309 303 298 293 286 279 271 263 256 248 242 240 237 234 226 225 222 221 219 219 226 227 225 228 229 234 232 232 230 225 236 225 218 217 218 213 215 223 223 231
320 319 317 317 312 306 299 292 283 273 264 255 243 237 237 235 237 228 225 218 220 219 220 227 228 229 228 234 233 233 233 234 221 213 212 209 209 210 209 214 216 221 225
326 325 324 322 320 316 311 304 291 275 263 254 245 236 232 232 231 228 224 220 217 211 220 227 231 235 235 236 237 232 232 230 218 215 206 203 202 210 213 217 219 224 221
332 331 332 331 331 327 318 311 290 266 259 249 238 227 224 226 225 221 223 211 217 206 216 220 228 230 230 240 241 241 241 227 212 211 212 211 212 217 214 218 220 215 218
341 341 342 342 342 339 335 334 319 260 249 240 227 220 220 222 220 220 213 227 208 212 217 221 222 225 228 234 235 241 238 232 235 225 220 213 215 226 225 219 218 220 222
351 356 350 353 347 355 357 5 18 30 231 214 212 212 217 223 216 216 209 200 208 210 216 220 222 228 228 228 229 227 218 220 221 223 218 213 231 218 211 223 228 219 222
357 4 359 356 2 7 16 18 30 40 64 163 211 211 212 206 203 208 217 206 194 202 210 216 226 227 227 228 223 212 218 213 208 204 184 183 195 208 201 190 201 214 222
4 10 6 1 9 21 27 32 30 40 50 44 178 181 180 184 184 192 198 199 196 202 207 222 221 225 222 220 208 204 187 175 177 176 186 194 180 163 174 198 217 222 227
7 17 17 19 23 32 41 46 50 64 64 60 68 142 173 174 180 198 209 204 206 206 206 202 197 202 200 193 198 187 178 173 179 182 166 160 163 179 198 209 217 226 236
20 32 32 32 34 48 57 64 68 66 71 85 96 103 125 161 183 200 210 210 211 207 191 181 172 179 169 164 167 165 172 170 160 152 151 164 190 203 210 219 228 236 244
35 42 42 41 50 57 63 71 77 88 91 97 99 102 104 103 112 130 156 174 178 175 164 155 153 140 144 152 155 150 150 145 139 157 177 193 204 214 224 232 240 247 253
49 54 59 60 61 67 70 71 79 84 91 92 96 95 99 102 107 117 129 140 147 143 140 138 145 145 143 138 130 126 136 151 169 177 187 201 214 223 235 248 256 259 263
66 68 71 73 77 78 77 77 81 81 88 93 96 105 110 113 121 127 132 134 135 135 139 141 138 134 130 134 142 150 156 161 174 185 195 206 220 239 251 258 264 271 276
68 74 79 83 85 86 87 88 87 91 92 94 97 98 98 100 109 114 123 132 134 137 136 133 129 132 137 142 148 154 159 165 175 188 208 230 251 264 272 277 281 282 282
64 75 82 87 91 96 100 100 101 98 96 93 92 94 98 104 111 116 118 120 121 127 126 130 133 139 142 142 144 150 157 162 173 197 235 264 273 281 287 290 291 291 288
84 91 97 97 94 97 100 104 107 109 104 99 100 105 108 111 113 116 119 123 125 131 129 130 133 137 138 138 137 133 129 141 191 252 275 284 288 288 287 288 292 296 299
144 127 118 110 104 106 108 110 114 116 115 116 120 118 117 119 120 120 128 131 132 130 128 127 124 123 123 124 126 134 145 152 174 250 275 279 282 290 298 303 305 309 315
184 160 142 136 129 126 124 130 129 123 121 121 121 115 117 122 125 123 125 120 121 119 122 125 123 121 119 117 118 118 115 106 55 305 291 295 306 312 323 334 339 340 339
200 190 178 170 162 155 151 152 148 142 141 140 139 135 131 142 141 140 141 138 134 130 125 122 118 113 109 105 101 98 100 106 83 354 345 342 346 354 356 355 352 348 343
207 202 196 192 188 185 181 180 177 172 167 162 156 146 139 147 134 129 124 118 114 113 111 108 109 113 116 113 107 98 84 56 27 13 8 4 0 357 354 352 349 347 344
214 213 208 205 202 201 197 194 190 184 179 168 160 150 138 140 128 124 123 120 119 120 122 121 115 107 100 92 81 64 45 30 14 2 356 352 351 351 349 346 345 345 345
217 213 213 211 211 206 202 199 193 188 180 170 160 153 149 146 140 137 133 129 127 123 116 111 107 100 86 69 50 33 20 9 358 351 347 343 342 337 335 341 343 342 340
207 212 216 213 209 205 201 195 189 184 178 173 165 161 156 151 147 143 139 134 130 125 120 113 95 78 62 43 26 14 5 357 347 339 331 328 329 328 331 335 336 336 340
215 218 210 208 205 201 199 195 186 182 178 171 167 164 161 157 154 149 144 138 134 128 115 102 84 56 32 14 2 358 349 340 328 320 320 322 327 327 325 330 330 326 334
Wind_Speed_850mb
69 64 69 69 68 73 75 77 76 79 77 72 72 70 67 72 77 78 82 89 92 94 91 99 93 103 121 123 122 128 125 112 86 91 102 105 95 106 109 96 85 76 74
69 70 70 68 65 69 70 70 72 71 71 69 72 72 73 69 76 78 82 94 88 95 98 101 99 96 119 116 114 128 126 117 108 91 83 86 90 86 82 96 91 85 85
65 69 70 70 67 66 66 64 66 66 67 64 66 71 69 71 68 78 82 78 86 88 93 99 96 98 102 109 119 128 131 124 120 108 91 83 74 80 77 88 89 84 80
68 65 65 61 61 61 60 61 62 61 62 63 60 63 68 74 75 74 75 78 81 88 92 96 90 97 100 100 117 124 123 122 102 88 81 75 73 77 73 81 90 85 84
62 63 60 58 54 54 55 54 54 53 54 56 57 60 62 65 68 77 76 89 72 81 87 91 84 83 88 87 101 110 112 101 98 84 72 74 75 74 80 81 80 82 79
56 57 54 52 52 51 53 53 48 47 42 44 49 56 58 64 60 62 67 84 74 81 87 86 76 72 78 80 97 94 86 112 104 94 83 80 75 70 72 74 77 81 76
51 50 49 50 48 48 48 40 23 19 27 33 41 47 52 53 59 62 69 58 80 82 81 78 73 68 66 81 84 80 79 84 97 95 74 71 60 64 66 64 68 69 71
47 46 44 42 41 43 41 32 22 8 6 20 28 35 39 41 42 59 57 81 77 72 66 65 68 64 66 79 70 80 72 78 87 82 74 65 49 48 45 45 48 51 51
46 44 42 38 39 41 39 32 27 18 9 5 15 29 34 33 36 47 52 47 59 56 49 48 54 63 67 72 69 69 55 68 58 46 39 36 33 34 33 39 39 46 52
42 41 37 33 34 36 36 31 24 21 15 7 2 15 24 33 35 35 33 50 51 48 42 42 52 54 60 57 52 50 65 69 68 58 43 38 42 39 31 32 37 45 49
39 35 33 30 28 30 30 29 25 22 16 13 7 15 25 37 44 42 38 45 48 46 44 46 38 36 48 40 39 66 73 61 48 38 45 43 36 31 34 38 39 39 41
34 33 33 33 31 30 30 29 27 23 22 24 24 27 27 29 33 35 35 35 43 46 45 41 38 45 43 41 60 57 43 42 46 46 37 31 33 36 33 31 32 34 37
30 33 32 32 33 34 31 32 32 30 32 31 33 35 30 23 21 17 19 21 28 41 47 55 53 56 63 57 44 45 50 46 39 36 35 33 29 28 28 29 31 34 39
32 35 35 36 39 39 38 34 32 33 35 38 35 38 36 33 31 30 31 35 44 58 66 70 69 61 59 63 58 47 39 36 33 30 28 27 26 24 24 27 31 35 40
39 45 48 47 51 54 55 51 49 46 43 46 43 44 45 47 47 49 58 70 76 75 72 69 70 67 62 55 50 45 38 33 29 26 24 22 20 20 24 28 30 30 31
43 46 49 51 53 57 59 60 56 52 52 52 49 50 52 51 49 53 56 58 59 62 67 66 61 54 49 45 40 36 31 26 21 17 15 13 13 14 18 21 24 26 28
32 39 43 48 51 54 60 64 65 59 59 60 59 59 59 56 54 54 54 54 50 47 51 52 49 44 42 37 32 27 22 17 11 7 7 8 11 14 17 21 23 26 29
12 20 28 32 33 34 37 41 45 48 50 51 46 46 44 44 44 43 42 44 46 40 43 43 41 37 34 29 23 17 11 6 4 5 7 10 13 16 19 23 25 26 27
11 15 19 22 24 26 28 29 33 39 43 42 39 38 38 38 40 38 36 38 42 41 37 35 32 27 22 18 14 10 7 5 3 3 6 10 13 15 16 17 18 19 21
14 14 17 19 21 23 25 25 27 28 31 32 31 31 29 26 28 32 29 28 27 28 26 22 23 20 18 17 15 13 9 5 1 3 6 8 9 9 11 14 17 20 22
24 22 20 19 19 19 19 20 20 22 25 27 27 27 25 18 23 25 26 27 27 28 27 26 27 24 21 17 13 9 6 3 1 2 5 8 10 13 15 17 19 23 27
32 29 26 23 22 21 21 19 18 17 18 18 22 23 23 19 25 29 30 30 31 31 30 25 22 19 17 14 12 9 7 6 7 10 12 14 15 17 19 22 25 29 32
36 36 32 29 26 24 22 19 18 17 17 18 20 21 25 22 24 26 28 29 29 27 25 23 20 17 15 13 11 10 11 12 13 14 14 15 17 19 21 24 29 32 33
44 38 35 34 32 30 27 25 23 22 22 23 24 26 26 26 27 28 28 27 25 23 23 19 16 13 13 13 12 12 11 12 13 15 16 18 19 21 23 29 34 35 32
48 47 44 41 38 35 33 31 30 29 28 27 28 29 30 29 30 28 27 26 23 20 18 16 15 13 12 11 13 15 16 18 17 17 18 19 22 24 26 35 34 29 26
55 51 48 45 44 41 38 36 35 34 33 34 34 33 32 31 29 28 27 25 21 18 15 14 12 12 13 14 16 16 17 18 19 22 19 20 24 24 34 33 29 23 30
Wind_Direction_850mb
313 308 303 296 290 285 281 276 268 265 260 252 250 246 241 246 238 234 228 225 227 226 225 228 228 226 224 224 223 228 232 231 219 225 225 229 229 230 230 226 228 228 229
316 314 307 301 296 291 286 279 275 268 263 252 247 245 243 244 233 226 225 220 221 223 223 222 227 229 227 229 234 232 222 221 232 227 223 227 227 228 229 225 227 224 227
314 317 315 309 303 298 293 286 279 271 263 256 248 242 240 237 234 226 225 222 221 219 219 226 227 225 228 229 234 232 232 230 225 236 225 218 217 218 213 215 223 223 231
320 319 317 317 312 306 299 292 283 273 264 255 243 237 237 235 237 228 225 218 220 219 220 227 228 229 228 234 233 233 233 234 221 213 212 209 209 210 209 214 216 221 225
326 325 324 322 320 316 311 304 291 275 263 254 245 236 232 232 231 228 224 220 217 211 220 227 231 235 235 236 237 232 232 230 218 215 206 203 202 210 213 217 219 224 221
332 331 332 331 331 327 318 311 290 266 259 249 238 227 224 226 225 221 223 211 217 206 216 220 228 230 230 240 241 241 241 227 212 211 212 211 212 217 214 218 220 215 218
341 341 342 342 342 339 335 334 319 260 249 240 227 220 220 222 220 220 213 227 208 212 217 221 222 225 228 234 235 241 238 232 235 225 220 213 215 226 225 219 218 220 222
351 356 350 353 347 355 357 5 18 30 231 214 212 212 217 223 216 216 209 200 208 210 216 220 222 228 228 228 229 227 218 220 221 223 218 213 231 218 211 223 228 219 222
357 4 359 356 2 7 16 18 30 40 64 163 211 211 212 206 203 208 217 206 194 202 210 216 226 227 227 228 223 212 218 213 208 204 184 183 195 208 201 190 201 214 222
4 10 6 1 9 21 27 32 30 40 50 44 178 181 180 184 184 192 198 199 196 202 207 222 221 225 222 220 208 204 187 175 177 176 186 194 180 163 174 198 217 222 227
7 17 17 19 23 32 41 46 50 64 64 60 68 142 173 174 180 198 209 204 206 206 206 202 197 202 200 193 198 187 178 173 179 182 166 160 163 179 198 209 217 226 236
20 32 32 32 34 48 57 64 68 66 71 85 96 103 125 161 183 200 210 210 211 207 191 181 172 179 169 164 167 165 172 170 160 152 151 164 190 203 210 219 228 236 244
35 42 42 41 50 57 63 71 77 88 91 97 99 102 104 103 112 130 156 174 178 175 164 155 153 140 144 152 155 150 150 145 139 157 177 193 204 214 224 232 240 247 253
49 54 59 60 61 67 70 71 79 84 91 92 96 95 99 102 107 117 129 140 147 143 140 138 145 145 143 138 130 126 136 151 169 177 187 201 214 223 235 248 256 259 263
66 68 71 73 77 78 77 77 81 81 88 93 96 105 110 113 121 127 132 134 135 135 139 141 138 134 130 134 142 150 156 161 174 185 195 206 220 239 251 258 264 271 276
68 74 79 83 85 86 87 88 87 91 92 94 97 98 98 100 109 114 123 132 134 137 136 133 129 132 137 142 148 154 159 165 175 188 208 230 251 264 272 277 281 282 282
64 75 82 87 91 96 100 100 101 98 96 93 92 94 98 104 111 116 118 120 121 127 126 130 133 139 142 142 144 150 157 162 173 197 235 264 273 281 287 290 291 291 288
84 91 97 97 94 97 100 104 107 109 104 99 100 105 108 111 113 116 119 123 125 131 129 130 133 137 138 138 137 133 129 141 191 252 275 284 288 288 287 288 292 296 299
144 127 118 110 104 106 108 110 114 116 115 116 120 118 117 119 120 120 128 131 132 130 128 127 124 123 123 124 126 134 145 152 174 250 275 279 282 290 298 303 305 309 315
184 160 142 136 129 126 124 130 129 123 121 121 121 115 117 122 125 123 125 120 121 119 122 125 123 121 119 117 118 118 115 106 55 305 291 295 306 312 323 334 339 340 339
200 190 178 170 162 155 151 152 148 142 141 140 139 135 131 142 141 140 141 138 134 130 125 122 118 113 109 105 101 98 100 106 83 354 345 342 346 354 356 355 352 348 343
207 202 196 192 188 185 181 180 177 172 167 162 156 146 139 147 134 129 124 118 114 113 111 108 109 113 116 113 107 98 84 56 27 13 8 4 0 357 354 352 349 347 344
214 213 208 205 202 201 197 194 190 184 179 168 160 150 138 140 128 124 123 120 119 120 122 121 115 107 100 92 81 64 45 30 14 2 356 352 351 351 349 346 345 345 345
217 213 213 211 211 206 202 199 193 188 180 170 160 153 149 146 140 137 133 129 127 123 116 111 107 100 86 69 50 33 20 9 358 351 347 343 342 337 335 341 343 342 340
207 212 216 213 209 205 201 195 189 184 178 173 165 161 156 151 147 143 139 134 130 125 120 113 95 78 62 43 26 14 5 357 347 339 331 328 329 328 331 335 336 336 340
215 218 210 208 205 201 199 195 186 182 178 171 167 164 161 157 154 149 144 138 134 128 115 102 84 56 32 14 2 358 349 340 328 320 320 322 327 327 325 330 330 326 334